San Luis Obispo, CA

5:19 AM PST on November 19, 2019 (GMT -0800)
San Luis Obispo County-McChesney

Weather History for KSBP - October, 2019

Change the Weather History Date:

Wednesday, October 23, 2019

  Actual Average Record
Temperature  
Mean Temperature 74 °F -  
Max Temperature 93 °F 75 °F 104 °F (2017)
Min Temperature 55 °F 50 °F 39 °F (1953)
Cooling Degree Days 9    
Growing Degree Days 24 (Base 50)    
Moisture  
Dew Point 42 °F    
Average Humidity 38    
Maximum Humidity 72    
Minimum Humidity 17    
Precipitation  
Precipitation 0.00 in - - ()
Sea Level Pressure  
Sea Level Pressure 29.90 in    
Wind  
Wind Speed 5 mph (NW)    
Max Wind Speed 20 mph    
Max Gust Speed 24 mph    
Visibility 10 miles    
Events      
Averages and records for this station are not official NWS values.
T = Trace of Precipitation, MM = Missing Value Source: NWS Daily Summary

Daily Weather History Graph

Daily Weather History Graph

Search for Another Location

Airport or City:

Astronomy

Oct. 23, 2019 Rise Set
Actual Time 7:15 AM PDT 6:17 PM PDT
Civil Twilight 6:49 AM PDT 6:43 PM PDT
Nautical Twilight 6:19 AM PDT 7:13 PM PDT
Astronomical Twilight 5:50 AM PDT 7:42 PM PDT
Moon 1:56 AM PDT (10/23) 3:57 PM PDT (10/23)
Length of Visible Light 11h 53m
Length of Day
11h 02m
Waning Crescent, 25% of the Moon is Illuminated
Oct 23
Waning Crescent
Oct 27
New
Nov 4
First Quarter
Nov 12
Full
Nov 19
Last Quarter

Hourly Weather History & Observations

Time (PDT) Temp. Dew Point Humidity Pressure Visibility Wind Dir Wind Speed Gust Speed Precip Events Conditions
12:56 AM 62.1 °F 41.0 °F 46% 29.97 in 10.0 mi South 3.5 mph - N/A   Clear
1:56 AM 69.1 °F 39.0 °F 33% 29.96 in 10.0 mi SSW 5.8 mph - N/A   Clear
2:56 AM 64.9 °F 37.0 °F 36% 29.95 in 10.0 mi Calm Calm - N/A   Clear
3:56 AM 66.0 °F 37.9 °F 36% 29.94 in 10.0 mi Calm Calm - N/A   Clear
4:56 AM 68.0 °F 37.9 °F 33% 29.94 in 10.0 mi Calm Calm - N/A   Clear
5:56 AM 63.0 °F 39.0 °F 41% 29.95 in 10.0 mi Calm Calm - N/A   Clear
6:56 AM 64.0 °F 39.9 °F 41% 29.94 in 10.0 mi Variable 3.5 mph - N/A   Clear
7:56 AM 66.9 °F 39.9 °F 37% 29.94 in 10.0 mi Calm Calm - N/A   Clear
8:56 AM 77.0 °F 39.9 °F 26% 29.95 in 10.0 mi Calm Calm - N/A   Clear
9:56 AM 82.9 °F 39.0 °F 21% 29.94 in 10.0 mi East 5.8 mph - N/A   Clear
10:56 AM 84.9 °F 39.9 °F 20% 29.93 in 10.0 mi Variable 3.5 mph - N/A   Clear
11:56 AM 88.0 °F 43.0 °F 21% 29.91 in 10.0 mi North 12.7 mph - N/A   Clear
12:56 PM 91.0 °F 42.1 °F 18% 29.88 in 10.0 mi NNW 11.5 mph 18.4 mph N/A   Clear
1:56 PM 91.9 °F 41.0 °F 17% 29.86 in 10.0 mi NNW 19.6 mph 24.2 mph N/A   Clear
2:56 PM 82.9 °F 46.9 °F 28% 29.85 in 10.0 mi WNW 15.0 mph - N/A   Clear
3:56 PM 81.0 °F 43.0 °F 26% 29.85 in 10.0 mi NW 17.3 mph - N/A   Clear
4:56 PM 80.1 °F 39.9 °F 24% 29.84 in 10.0 mi NW 16.1 mph - N/A   Clear
5:56 PM 75.9 °F 39.0 °F 26% 29.83 in 10.0 mi NW 16.1 mph - N/A   Clear
6:56 PM 66.9 °F 45.0 °F 45% 29.84 in 10.0 mi NW 16.1 mph - N/A   Clear
7:56 PM 62.1 °F 48.9 °F 62% 29.85 in 10.0 mi WNW 8.1 mph - N/A   Clear
8:56 PM 59.0 °F 50.0 °F 72% 29.86 in 10.0 mi NW 3.5 mph - N/A   Clear
9:56 PM 60.1 °F 48.0 °F 64% 29.88 in 10.0 mi Calm Calm - N/A   Clear
10:56 PM 57.9 °F 46.9 °F 67% 29.88 in 10.0 mi Calm Calm - N/A   Clear
11:56 PM 55.9 °F 46.0 °F 69% 29.87 in 10.0 mi East 4.6 mph - N/A   Clear